Regional Weather Roundup
Issued by NWS

Home | Current Version | Previous Version | Text Only | Print | Product List | Glossary On
Versions: 1 2 3 4 5 6 7 8 9 10 11 12 13 14 15 16 17 18 19 20 21 22 23 24 25 26 27 28 29 30 31 32 33 34 35 36 37 38 39 40 41 42 43 44 45 46 47 48 49 50
327
ASUS44 KLIX 011001
RWRLA
LOUISIANA WEATHER ROUNDUP
NATIONAL WEATHER SERVICE NEW ORLEANS LA
400 AM CST SUN FEB 01 2015

NOTE: "FAIR" INDICATES FEW OR NO CLOUDS BELOW 12,000 FEET WITH NO
      SIGNIFICANT WEATHER AND/OR OBSTRUCTIONS TO VISIBILITY.
      SKY/WX - SKY CONDITION AND SIGNIFICANT WEATHER.
      TMP - AIR TEMPERATURE.    DP   - DEWPOINT TEMPERATURE.
      RH  - RELATIVE HUMIDITY.  PRES - PRESSURE.
      HX  - HEAT INDEX.         WCI  - WIND CHILL INDEX.

*  THESE STATIONS ARE NOT NWS OR FAA STATIONS AND ARE NOT UNDER
   NWS QUALITY CONTROL.

LAZ040-048-061>063-065-066-069-011100-
SOUTHEAST LOUISIANA

CITY           SKY/WX    TMP DP  RH WIND       PRES   REMARKS
N.O. AUDUBON     N/A     61  56  85 MISG        N/A
N.O. INTL ARPT CLOUDY    61  54  77 SE12      30.02F
N.O. LAKEFRONT CLOUDY    61  54  77 SE12      30.03F
N.O. DOWNTOWN* NOT AVBL
SLIDELL        CLOUDY    60  53  77 SE7       30.03F
BATON ROUGE    CLOUDY    56  51  84 E8        30.00F
BOOTHVILLE     CLOUDY    59  55  87 SE5       30.05F
BELLE CHASSE   CLOUDY    62  54  74 SE9       30.03F
BOGALUSA*        N/A     56  50  79 SE3       30.06F
GALLIANO*      NOT AVBL
NEW ROADS*     NOT AVBL
GONZALES*      NOT AVBL
HAMMOND*       NOT AVBL
HOUMA*         CLOUDY    60  58  95 E5        30.01F
PORT FOURCHON* CLOUDY    66  61  82 SE14      30.04F

$$

LAZ041-044-053-054-011100-
SOUTHWEST LOUISIANA

CITY           SKY/WX    TMP DP  RH WIND       PRES   REMARKS
LAKE CHARLES   MOCLDY    56  55  97 SE3       29.95S
LAFAYETTE      CLOUDY    59  55  87 SE5       29.97F
PATTERSON      CLOUDY    61  57  88 SE10      30.00F
SALT POINT       N/A     60  59  96 SE10      29.99F
NEW IBERIA     CLOUDY    60  56  86 SE18      29.95F
CHENAULT AIRPK NOT AVBL

$$

LAZ027-028-011100-
CENTRAL LOUISIANA

CITY           SKY/WX    TMP DP  RH WIND       PRES   REMARKS
FORT POLK      NOT AVBL
ALEXANDRIA INT CLOUDY    55  52  89 SE8       29.95F
ALEXANDRIA     CLOUDY    55  51  86 SE7       29.96F

$$

LAZ001-002-011100-
NORTHWEST LOUISIANA

CITY           SKY/WX    TMP DP  RH WIND       PRES   REMARKS
SHREVEPORT     CLOUDY    56  52  86 S10       29.91F
BARKSDALE AFB  CLOUDY    55  53  92 S10       29.91F
DTN SHREVEPORT CLOUDY    55  50  83 S13       29.91F

$$

LAZ014-016-011100-
NORTHEAST LOUISIANA

CITY           SKY/WX    TMP DP  RH WIND       PRES   REMARKS
MONROE         LGT RAIN  52  50  93 SE8       29.94F
TALLULAH       LGT RAIN  51  48  89 SE12      30.00F

$$




USA.gov is the U.S. government's official web portal to all federal, state and local government web resources and services.